SKBO

El Dorado International Airport

Airport
ICAO code
SKBO
IATA Code
BOG
Summary
ICAO Region
CARSAM
ICAO Territory
Location

Fontibon, Cundinamarca Department

Serving
Bogota
Elevation
8361 ft
Coordinates
4° 42' 5" N , 74° 8' 40" W
KCC
Airport RE
Hot and High Operations
Airport WX
Lightning
Metar
SKBO 280700Z 35007KT 320V040 9999 FEW023 SCT060 12/12 Q1026 NOSIG

El Dorado International Airport is an international airport located in Bogotá, Colombia.

Climatology

Sub-Tropical Oceanic climate (Köppen climate classification Cfb).

Runways

Designator Length Width Surface Rops
13L/31R 3800 45 ASP Yes/Yes
13R/31L 3800 45 ASP Yes/Yes

Airport map

Aerial View

SKYbrary Partners:

Safety knowledge contributed by: